RH
36 37 37 37 37 38 38 37 37 37 37 38 37 36 35 34 34 35 35 34 34 34 33 33 33 34 30 24 21 17 14 12 11 11 14 21 23 21 18 17 16 14 10 8 8 7 7 5 6 5 5 7 7 13 16 18 26 24 18 15 12 11 12 10 11 14 17 22 20 25 40 52 64 70 67 63 63 69 74 77 78 74 68 66 66 66 64 63
37 37 38 38 38 38 37 36 36 36 39 39 35 34 35 34 33 33 35 36 37 37 36 35 36 35 29 25 21 18 16 13 14 18 25 29 30 29 28 27 23 16 12 12 11 10 10 7 7 6 6 12 13 17 19 20 25 20 15 15 12 10 11 12 12 12 13 21 20 22 36 47 60 71 71 68 65 65 71 77 78 77 77 73 70 68 66 66
37 38 38 38 39 38 37 37 37 37 40 39 36 37 40 40 40 37 34 36 39 40 39 37 38 36 29 25 22 20 19 17 22 29 33 34 33 33 31 29 25 18 16 16 15 14 12 10 9 7 8 13 17 20 21 21 22 19 17 15 12 12 14 14 15 15 15 19 20 23 33 44 56 68 74 73 69 67 69 75 78 78 78 78 74 70 68 68
37 37 38 38 39 38 38 38 37 39 41 41 41 42 43 42 45 42 33 33 37 39 40 39 40 37 30 27 24 23 22 21 29 36 35 35 35 35 32 28 26 22 21 20 19 17 15 12 10 9 11 16 22 23 20 22 21 19 19 15 13 15 15 16 17 18 18 18 20 22 29 43 54 62 70 72 72 72 72 75 79 79 77 76 75 73 71 71
36 37 37 38 38 38 38 38 38 40 41 42 42 42 41 40 40 38 31 29 33 37 41 40 41 38 31 29 27 25 24 23 31 39 38 38 38 37 34 32 30 27 26 24 22 20 18 15 13 12 13 17 23 21 18 24 25 21 19 16 17 18 15 18 20 20 21 20 20 22 26 40 53 60 64 67 73 75 76 77 78 77 77 76 75 76 75 77
37 37 38 38 39 40 39 40 39 39 41 41 41 41 42 40 37 33 30 29 30 34 37 37 39 38 33 32 30 29 27 28 35 40 40 39 38 38 36 32 30 27 26 25 23 22 20 19 16 18 20 18 20 18 17 25 27 22 18 19 20 20 18 20 22 23 24 23 22 25 28 37 49 59 63 64 71 78 79 79 78 77 77 78 77 78 78 78
37 38 39 40 40 40 40 40 38 38 40 41 40 41 43 42 38 32 29 28 28 30 32 33 36 35 33 32 31 31 30 33 38 37 39 40 37 38 35 31 29 25 26 26 26 25 24 22 19 24 24 18 20 19 21 26 27 24 19 20 21 21 22 22 23 25 25 25 26 29 30 35 44 55 65 65 68 76 80 78 79 80 78 78 79 81 81 77
38 39 40 40 39 39 40 38 36 39 40 41 39 38 39 39 36 31 28 26 26 27 27 30 33 31 31 30 29 31 30 33 36 35 39 39 36 38 37 34 30 27 30 29 28 29 29 27 23 25 22 19 23 20 23 25 23 24 20 20 23 22 24 24 24 26 27 26 30 33 31 35 42 50 63 69 67 71 77 79 80 80 80 83 82 82 82 79
38 39 40 39 38 38 38 36 35 39 41 41 39 35 35 35 34 30 27 25 24 24 23 25 28 27 28 28 27 27 28 29 31 31 34 34 34 39 38 36 31 29 33 32 33 34 32 32 29 29 25 24 27 23 26 24 18 23 22 21 23 22 24 24 25 26 28 28 32 37 33 36 41 47 58 66 69 69 72 79 82 81 81 86 87 86 85 83
37 38 39 37 37 38 37 33 32 36 37 36 34 32 32 32 31 28 27 28 26 23 23 25 26 27 29 30 28 25 24 26 25 24 27 30 33 37 38 36 31 30 33 34 35 36 37 36 34 34 30 28 29 27 29 24 21 27 25 23 23 22 24 25 26 27 29 32 35 38 35 35 39 46 53 59 67 70 70 74 81 84 83 83 87 92 92 87
37 37 36 35 36 38 35 30 28 28 29 30 30 31 31 29 27 25 26 29 27 25 26 27 28 30 31 34 34 28 25 25 24 22 23 27 31 34 36 33 29 29 32 35 35 36 37 36 35 35 31 30 31 29 30 28 28 28 24 24 22 21 22 22 25 27 29 34 39 39 37 37 41 47 52 54 61 68 71 73 77 83 85 83 84 91 94 92
36 34 34 35 34 34 30 25 23 22 24 26 27 28 28 26 25 24 25 27 29 30 31 31 32 33 34 37 38 33 29 27 26 25 23 26 30 32 32 28 25 25 29 31 33 35 36 35 36 34 35 38 34 30 32 32 30 29 25 23 21 20 20 18 21 25 29 35 37 39 43 46 48 51 51 52 58 65 71 73 75 80 83 84 85 86 89 91
35 31 31 33 31 27 24 21 20 20 21 23 25 26 26 27 28 28 30 33 36 38 38 39 39 39 39 39 37 35 32 29 27 28 27 27 30 31 30 27 23 23 25 26 28 31 33 34 35 35 38 43 41 37 36 33 30 28 26 23 20 21 18 15 19 23 30 37 34 38 51 52 48 50 50 50 53 61 68 68 71 78 81 84 86 86 85 86
32 29 26 28 27 23 19 18 18 20 20 22 27 27 28 31 32 32 35 39 40 41 43 46 47 48 47 42 36 35 36 35 32 31 32 32 31 31 30 27 24 23 24 25 28 30 31 33 34 35 36 38 43 44 40 38 34 29 28 26 21 22 20 15 17 22 31 39 40 48 58 52 45 46 48 50 50 54 64 66 67 74 81 84 85 86 85 84
26 25 23 22 21 18 16 17 18 20 20 22 28 28 29 34 35 36 38 40 41 41 43 48 51 55 56 49 42 40 40 40 39 37 37 36 33 31 31 28 27 27 27 29 31 32 32 32 32 33 34 36 40 41 39 40 38 34 37 37 27 24 28 24 17 19 30 39 46 58 62 51 46 44 45 52 52 52 58 64 66 69 78 85 85 84 82 83
23 22 22 18 16 15 15 16 17 20 21 22 27 27 30 34 37 38 39 40 42 44 47 52 56 59 60 55 49 48 47 46 46 44 41 40 37 33 32 31 31 31 32 33 33 32 33 32 32 34 34 34 33 33 36 40 39 38 41 43 36 29 32 32 24 20 28 42 54 62 62 55 49 44 43 49 53 52 54 61 67 66 73 85 88 85 85 86
21 20 19 16 14 14 15 16 17 20 21 22 25 27 31 35 36 39 40 40 43 47 52 57 61 65 64 58 56 57 55 53 50 47 47 47 43 38 36 34 35 35 37 38 35 34 34 33 34 34 33 31 30 33 37 38 37 36 38 42 44 39 35 37 40 34 28 43 60 62 62 60 54 49 45 46 50 51 51 56 65 66 69 81 89 88 89 91
20 19 18 15 14 15 16 17 17 19 21 23 25 28 33 35 37 40 42 43 46 50 57 61 65 70 68 63 63 63 61 58 54 52 53 53 49 45 41 37 38 39 41 41 39 39 36 35 36 33 32 31 30 33 37 36 33 33 38 40 41 43 40 41 49 45 30 40 60 62 63 62 57 54 51 49 49 49 49 51 58 64 66 74 85 89 89 93
19 18 16 15 15 15 16 18 18 19 22 24 27 30 34 37 40 43 44 46 50 53 58 63 67 70 69 67 69 68 66 65 62 58 56 57 54 51 47 42 40 41 43 42 42 46 42 40 40 35 32 32 30 30 33 37 35 32 37 39 41 41 41 45 52 48 35 39 56 61 64 64 60 58 55 56 55 51 50 49 53 60 66 70 77 86 89 91
16 16 16 15 15 16 17 18 18 20 23 26 29 32 36 39 41 43 44 46 50 53 58 64 68 69 70 72 74 74 73 71 68 65 63 61 58 56 55 51 46 43 42 41 43 51 51 46 41 35 34 35 35 34 35 37 35 35 36 38 45 44 45 52 53 50 43 45 54 58 62 65 65 62 57 59 60 56 53 50 51 54 61 68 70 79 89 89
16 15 15 15 15 16 17 18 19 20 23 26 29 33 38 40 41 43 46 47 49 55 61 66 69 72 72 74 78 78 77 76 74 74 73 70 66 63 63 60 56 49 46 47 48 51 53 47 41 39 38 36 36 36 37 37 35 37 38 41 49 48 49 55 53 51 49 51 56 55 59 63 63 65 62 59 59 60 58 52 51 51 55 62 64 71 85 90
16 15 14 15 14 16 17 18 20 21 24 26 28 34 39 42 43 46 50 52 55 60 65 67 70 74 73 76 81 80 81 80 79 81 83 82 78 71 69 67 62 56 53 54 54 54 53 45 42 43 39 34 32 33 35 37 37 36 37 44 51 49 51 54 55 56 52 54 57 53 57 62 60 63 65 64 62 62 60 54 52 52 52 57 60 66 78 87
16 15 15 15 15 16 16 17 20 22 24 26 28 33 38 42 44 46 52 57 62 64 66 69 73 76 77 80 84 84 85 84 83 88 89 89 88 80 75 70 64 61 59 57 58 60 59 52 48 46 41 36 33 33 34 35 36 36 37 45 49 48 51 52 55 61 56 54 56 52 56 62 60 64 68 70 68 66 62 57 55 54 52 55 60 65 72 79
15 16 15 15 15 15 15 18 20 22 24 27 29 33 37 41 43 46 52 60 66 64 66 71 75 79 82 85 88 88 89 89 89 93 91 92 94 87 80 73 68 67 63 58 58 62 62 60 57 51 46 42 38 37 36 34 34 34 35 40 44 46 51 54 58 62 59 57 55 52 60 64 60 62 68 73 73 70 66 60 58 58 56 57 61 66 70 75
16 16 16 16 15 14 15 18 19 21 24 27 30 33 36 40 42 47 52 58 62 62 66 73 77 82 85 88 91 90 90 92 92 91 88 88 90 87 84 80 75 70 65 61 61 63 62 62 62 58 53 49 46 42 38 35 37 37 34 32 35 42 51 57 60 65 70 67 57 54 63 66 63 61 62 70 76 76 70 62 58 59 60 60 60 65 69 74
16 16 16 16 15 14 16 17 18 21 24 26 30 34 36 38 42 47 51 54 55 58 66 73 79 84 87 89 91 89 91 95 92 89 85 83 85 85 85 85 81 76 70 66 66 65 60 60 62 62 60 58 53 48 42 41 46 44 35 30 31 39 50 55 58 71 80 71 56 54 60 60 60 62 58 62 74 79 77 68 60 59 62 63 63 66 68 72
16 17 16 16 15 15 15 16 17 20 23 25 29 34 36 37 41 46 48 49 50 56 65 72 78 84 87 88 88 87 92 95 92 89 86 82 85 87 84 86 87 83 77 76 76 69 61 61 63 62 62 61 58 56 52 50 55 51 40 35 32 34 45 50 55 72 80 73 64 59 59 58 56 59 58 58 65 73 79 76 66 61 62 66 70 73 73 73
17 17 17 16 16 16 15 16 17 20 22 24 29 33 34 36 42 45 44 43 47 56 64 70 78 82 81 83 87 90 93 94 92 90 88 85 87 90 89 89 89 86 82 80 80 77 71 68 65 63 61 59 57 58 58 57 56 52 47 44 37 36 43 46 55 76 85 87 84 69 61 63 58 56 60 62 62 64 72 76 72 65 64 68 69 70 73 74
17 17 18 17 16 16 17 17 17 19 22 24 29 31 33 36 40 41 39 39 46 54 60 68 77 79 77 78 86 93 93 94 94 91 90 88 85 88 92 92 90 90 88 84 83 85 82 75 69 67 66 60 55 55 59 58 52 49 50 48 44 46 51 52 59 80 92 97 96 79 63 61 59 56 59 63 62 59 61 68 74 72 71 73 68 65 70 74
17 18 18 17 17 18 18 18 18 19 22 26 29 30 33 35 34 34 35 39 46 51 55 64 72 74 74 78 84 91 94 95 94 92 92 91 87 88 93 94 92 91 89 86 87 90 89 84 78 76 74 64 56 54 57 57 51 49 50 52 57 59 61 63 67 82 97 97 94 86 69 59 58 55 53 51 46 47 53 62 72 73 72 71 66 64 68 72
17 18 18 17 18 19 20 20 19 19 23 26 28 30 32 31 28 31 35 39 45 49 53 61 69 70 71 76 82 87 91 93 94 94 96 95 91 90 93 97 95 90 85 83 85 87 90 91 88 86 82 66 54 55 58 57 53 49 49 58 69 69 66 69 77 90 99 92 86 84 74 64 57 50 47 40 34 40 49 57 65 67 66 65 62 62 65 70
17 18 18 17 18 19 20 21 19 20 24 26 28 30 29 26 25 30 35 38 42 47 50 59 67 68 68 74 79 83 89 92 92 94 96 96 95 94 93 95 96 90 82 78 79 80 82 87 88 85 78 63 54 57 59 58 54 50 57 70 73 72 71 72 82 94 94 90 87 82 77 71 55 44 45 41 35 38 42 50 63 69 70 69 67 65 66 71
18 18 18 17 18 18 19 20 20 21 23 26 28 27 24 22 25 32 36 37 40 45 50 57 64 68 68 70 73 79 87 90 91 93 95 95 95 96 95 94 95 90 77 67 68 72 70 72 75 71 64 56 54 56 58 60 54 49 65 78 72 70 74 74 81 88 86 88 91 84 83 77 54 43 48 46 43 44 42 48 64 76 79 75 72 72 70 70
19 18 18 18 18 18 18 19 20 22 23 24 26 24 22 22 27 33 35 36 39 44 48 53 62 68 67 66 70 77 81 85 88 91 93 94 95 96 96 96 95 91 79 65 63 65 58 55 59 58 53 52 52 53 56 60 55 51 67 80 75 76 82 80 80 81 79 81 87 88 89 79 58 49 50 48 49 51 49 50 58 70 77 75 74 74 72 69
19 19 19 19 19 18 18 19 20 22 23 24 23 21 21 23 26 31 33 35 39 41 45 50 58 65 63 61 69 75 76 78 82 87 90 92 94 95 94 94 93 90 81 67 60 61 58 55 59 58 56 58 54 51 57 64 66 66 73 81 83 85 91 91 90 89 85 83 84 84 79 71 63 56 48 46 48 48 49 52 53 58 64 68 74 76 74 72
19 20 19 20 20 19 19 19 20 22 24 25 23 19 21 25 25 28 31 33 35 36 41 45 50 58 59 58 63 69 71 72 75 79 83 86 89 90 89 89 90 89 82 71 65 65 65 67 67 62 67 70 58 54 66 77 80 79 78 84 88 88 93 97 96 94 92 92 89 76 66 63 62 57 49 45 45 43 43 47 49 52 56 60 66 72 74 72
20 21 21 21 21 19 20 19 20 22 24 25 23 20 25 28 26 27 30 31 32 35 37 38 42 51 60 61 58 59 63 65 67 70 72 75 80 82 83 84 85 85 85 82 78 74 73 71 66 63 73 77 68 69 81 85 84 82 80 85 90 90 94 96 93 89 86 92 90 75 64 61 58 55 53 47 44 43 41 39 40 46 53 53 54 62 68 68
21 23 23 22 20 19 20 19 18 23 24 24 26 27 29 29 26 28 30 28 29 32 33 35 37 44 56 60 55 53 57 58 60 63 63 65 70 73 74 74 75 77 81 85 84 80 75 71 66 70 79 80 76 80 87 89 90 86 82 85 89 90 91 89 87 82 77 81 83 74 68 61 51 50 51 46 41 40 40 39 36 39 45 47 47 50 55 59
23 25 25 23 19 19 21 18 19 23 22 21 26 28 29 30 27 27 28 25 26 29 30 31 34 38 47 54 53 52 54 54 56 59 59 60 64 67 65 62 63 65 71 81 82 79 77 75 75 79 80 78 79 84 89 92 95 93 90 91 92 90 88 83 79 71 67 72 73 73 72 59 46 45 44 41 41 40 40 40 38 37 40 43 45 46 48 53
24 26 26 22 19 20 22 19 18 22 21 21 25 28 31 32 28 25 24 24 24 25 26 28 31 34 39 46 49 51 52 53 55 57 56 56 59 62 59 55 55 58 66 76 78 79 81 78 77 80 78 78 80 81 84 87 89 91 93 96 95 90 84 79 73 65 62 64 62 64 63 52 48 51 46 44 48 49 45 42 41 43 45 46 47 49 51 53
25 26 25 21 20 22 21 19 22 26 25 24 26 30 33 32 29 26 23 23 23 23 24 26 27 29 33 38 43 47 49 51 54 54 54 53 53 54 53 49 48 52 59 66 70 76 78 70 69 74 76 77 76 76 82 87 88 88 89 91 89 85 80 74 70 65 59 58 57 54 46 40 48 57 54 52 51 49 47 46 45 48 50 52 51 51 53 54
26 26 24 22 23 24 21 22 30 31 26 24 26 30 34 32 30 27 23 23 24 23 23 24 25 27 29 32 37 43 46 47 49 49 49 51 49 49 48 44 45 49 53 56 60 65 63 58 63 70 70 69 69 74 84 88 87 88 87 85 78 74 74 68 65 63 56 54 55 49 39 37 45 50 51 51 47 44 44 45 46 48 50 53 52 51 53 53
27 26 25 24 24 25 23 24 29 30 27 29 29 29 32 32 29 26 24 24 24 23 21 22 24 25 25 28 32 36 39 41 43 43 45 47 46 46 46 44 46 49 50 51 52 54 52 50 58 64 62 62 64 68 76 78 80 83 84 81 75 69 67 63 60 58 53 51 48 42 36 36 40 43 45 48 47 45 44 45 47 49 50 51 50 49 50 52
30 28 27 26 26 26 25 23 24 24 29 33 29 25 28 30 29 25 23 23 23 23 21 19 20 20 21 25 28 30 33 34 36 38 42 44 43 44 44 43 45 48 49 48 48 51 49 47 53 54 50 55 65 69 74 77 78 78 77 75 74 70 64 60 58 52 47 46 42 36 32 32 34 39 42 45 45 43 42 43 45 47 48 50 49 49 51 53
32 33 31 28 28 28 26 25 23 25 33 35 28 24 24 25 27 26 24 24 24 24 22 20 21 21 21 23 26 28 30 30 31 33 37 41 43 43 42 41 42 46 50 51 49 50 49 45 48 49 46 55 67 70 72 76 73 71 71 70 69 67 62 60 59 52 47 46 41 36 34 33 34 37 40 42 41 38 38 40 41 42 43 45 47 49 53 56
33 35 34 32 30 29 28 28 26 27 33 32 25 23 22 21 24 27 26 24 24 25 24 22 23 24 22 22 26 29 28 26 28 31 33 37 41 44 43 40 40 45 51 53 49 49 51 48 48 52 53 59 65 66 69 73 70 67 66 64 62 62 60 58 57 52 49 46 42 40 40 39 37 36 37 41 41 39 39 39 38 39 40 43 46 49 54 56
35 36 37 35 33 32 32 32 30 28 29 27 22 22 22 20 20 23 25 24 23 25 25 23 24 24 21 21 23 25 25 23 23 26 29 33 39 44 43 41 41 43 44 44 42 45 50 49 50 55 56 54 56 60 63 65 66 66 64 57 53 54 55 56 55 50 47 44 39 40 42 40 37 34 35 38 40 40 40 40 39 41 42 45 48 50 52 53
37 37 37 36 36 37 36 35 35 34 31 28 26 24 23 20 19 19 21 23 24 25 23 20 22 23 21 23 22 19 21 20 16 18 23 29 36 40 40 40 43 44 42 38 37 40 42 42 44 48 48 43 41 46 50 52 54 59 58 51 45 45 47 50 49 46 45 43 39 38 39 36 34 33 33 35 36 38 40 41 41 42 44 47 49 50 50 49
39 38 38 38 38 39 39 39 39 37 34 33 33 29 25 22 19 18 21 22 21 24 23 17 18 22 23 25 24 20 18 17 14 15 21 25 30 34 34 35 38 43 45 42 41 42 42 42 44 44 42 38 34 34 37 38 39 43 47 44 41 41 42 42 43 45 45 43 41 42 41 38 35 34 32 33 35 36 39 42 43 43 45 46 47 47 46 45
41 39 38 38 39 39 41 43 42 37 35 35 34 31 28 25 21 20 23 21 17 20 23 18 18 23 25 25 25 22 18 17 15 16 19 22 23 26 27 28 32 39 43 43 45 46 43 44 47 46 43 43 40 36 34 31 30 32 36 38 39 41 41 39 39 43 43 39 38 41 40 35 34 35 34 34 36 36 37 39 41 43 44 44 44 43 42 42
46 42 38 38 40 42 44 44 41 38 36 35 33 32 31 29 25 23 23 21 18 18 21 19 19 24 26 25 25 22 19 19 19 19 21 22 21 21 22 24 28 32 36 42 46 46 44 43 43 42 42 43 41 38 35 34 35 33 31 32 35 39 40 38 36 37 35 32 34 38 34 28 29 33 33 33 34 33 33 34 34 36 37 38 38 38 37 37
50 47 43 40 40 44 46 45 40 39 39 39 37 37 36 33 31 28 24 23 24 22 20 21 22 23 23 22 22 21 20 21 22 23 25 26 26 27 26 26 27 26 28 34 37 37 39 38 36 37 38 36 33 34 34 33 33 32 29 28 29 31 35 37 34 33 31 29 30 29 25 24 29 31 30 31 32 31 30 30 30 31 32 33 33 33 33 34